Year,Month,Day,Hour,Minute,Value (Times are PST for temperature in C)
2019,06,27,00,00,15.30
2019,06,27,00,01,15.30
2019,06,27,00,02,15.30
2019,06,27,00,03,15.30
2019,06,27,00,04,15.30
2019,06,27,00,05,15.30
2019,06,27,00,06,15.30
2019,06,27,00,07,15.30
2019,06,27,00,08,15.30
2019,06,27,00,09,15.30
2019,06,27,00,10,15.40
2019,06,27,00,11,15.40
2019,06,27,00,12,15.40
2019,06,27,00,13,15.50
2019,06,27,00,14,15.60
2019,06,27,00,15,15.60
2019,06,27,00,16,15.70
2019,06,27,00,17,15.70
2019,06,27,00,18,15.70
2019,06,27,00,19,15.80
2019,06,27,00,20,15.80
2019,06,27,00,21,15.80
2019,06,27,00,22,15.80
2019,06,27,00,23,15.90
2019,06,27,00,24,15.90
2019,06,27,00,25,15.90
2019,06,27,00,26,16.00
2019,06,27,00,27,16.00
2019,06,27,00,28,16.00
2019,06,27,00,29,16.00
2019,06,27,00,30,16.00
2019,06,27,00,31,16.00
2019,06,27,00,32,16.00
2019,06,27,00,33,16.00
2019,06,27,00,34,16.00
2019,06,27,00,35,16.00
2019,06,27,00,36,16.00
2019,06,27,00,37,16.00
2019,06,27,00,38,16.00
2019,06,27,00,39,16.00
2019,06,27,00,40,15.90
2019,06,27,00,41,15.90
2019,06,27,00,42,15.90
2019,06,27,00,43,15.90
2019,06,27,00,44,15.90
2019,06,27,00,45,15.90
2019,06,27,00,46,15.90
2019,06,27,00,47,15.90
2019,06,27,00,48,15.90
2019,06,27,00,49,15.90
2019,06,27,00,50,15.90
2019,06,27,00,51,15.90
2019,06,27,00,52,15.90
2019,06,27,00,53,15.90
2019,06,27,00,54,15.90
2019,06,27,00,55,15.90
2019,06,27,00,56,15.90
2019,06,27,00,57,15.90
2019,06,27,00,58,15.90
2019,06,27,00,59,15.90
2019,06,27,01,00,15.90
2019,06,27,01,01,15.90
2019,06,27,01,02,15.90
2019,06,27,01,03,15.90
2019,06,27,01,04,15.90
2019,06,27,01,05,15.90
2019,06,27,01,06,15.90
2019,06,27,01,07,15.90
2019,06,27,01,08,15.90
2019,06,27,01,09,15.90
2019,06,27,01,10,15.90
2019,06,27,01,11,15.90
2019,06,27,01,12,15.90
2019,06,27,01,13,15.90
2019,06,27,01,14,15.90
2019,06,27,01,15,15.90
2019,06,27,01,16,15.90
2019,06,27,01,17,15.90
2019,06,27,01,18,15.90
2019,06,27,01,19,15.90
2019,06,27,01,20,15.90
2019,06,27,01,21,15.90
2019,06,27,01,22,15.90
2019,06,27,01,23,15.90
2019,06,27,01,24,15.90
2019,06,27,01,25,15.90
2019,06,27,01,26,15.90
2019,06,27,01,27,15.90
2019,06,27,01,28,15.90
2019,06,27,01,29,15.90
2019,06,27,01,30,15.90
2019,06,27,01,31,15.90
2019,06,27,01,32,15.80
2019,06,27,01,33,15.80
2019,06,27,01,34,15.80
2019,06,27,01,35,15.80
2019,06,27,01,36,15.80
2019,06,27,01,37,15.80
2019,06,27,01,38,15.80
2019,06,27,01,39,15.80
2019,06,27,01,40,15.80
2019,06,27,01,41,15.80
2019,06,27,01,42,15.80
2019,06,27,01,43,15.80
2019,06,27,01,44,15.80
2019,06,27,01,45,15.80
2019,06,27,01,46,15.80
2019,06,27,01,47,15.80
2019,06,27,01,48,15.80
2019,06,27,01,49,15.80
2019,06,27,01,50,15.70
2019,06,27,01,51,15.80
2019,06,27,01,52,15.70
2019,06,27,01,53,15.70
2019,06,27,01,54,15.70
2019,06,27,01,55,15.70
2019,06,27,01,56,15.60
2019,06,27,01,57,15.60
2019,06,27,01,58,15.50
2019,06,27,01,59,15.40
2019,06,27,02,00,15.40
2019,06,27,02,01,15.30
2019,06,27,02,02,15.30
2019,06,27,02,03,15.20
2019,06,27,02,04,15.20
2019,06,27,02,05,15.20
2019,06,27,02,06,15.20
2019,06,27,02,07,15.20
2019,06,27,02,08,15.10
2019,06,27,02,09,15.10
2019,06,27,02,10,15.10
2019,06,27,02,11,15.10
2019,06,27,02,12,15.10
2019,06,27,02,13,15.10
2019,06,27,02,14,15.00
2019,06,27,02,15,15.00
2019,06,27,02,16,15.00
2019,06,27,02,17,14.90
2019,06,27,02,18,14.90
2019,06,27,02,19,14.90
2019,06,27,02,20,14.90
2019,06,27,02,21,14.90
2019,06,27,02,22,14.90
2019,06,27,02,23,15.00
2019,06,27,02,24,15.00
2019,06,27,02,25,15.00
2019,06,27,02,26,15.00
2019,06,27,02,27,15.00
2019,06,27,02,28,15.00
2019,06,27,02,29,15.00
2019,06,27,02,30,15.00
2019,06,27,02,31,15.00
2019,06,27,02,32,15.00
2019,06,27,02,33,15.00
2019,06,27,02,34,15.00
2019,06,27,02,35,15.00
2019,06,27,02,36,15.00
2019,06,27,02,37,15.00
2019,06,27,02,38,15.00
2019,06,27,02,39,15.00
2019,06,27,02,40,15.00
2019,06,27,02,41,15.00
2019,06,27,02,42,14.90
2019,06,27,02,43,14.90
2019,06,27,02,44,14.80
2019,06,27,02,45,14.80
2019,06,27,02,46,14.70
2019,06,27,02,47,14.60
2019,06,27,02,48,14.50
2019,06,27,02,49,14.50
2019,06,27,02,50,14.40
2019,06,27,02,51,14.30
2019,06,27,02,52,14.30
2019,06,27,02,53,14.30
2019,06,27,02,54,14.30
2019,06,27,02,55,14.30
2019,06,27,02,56,14.20
2019,06,27,02,57,14.20
2019,06,27,02,58,14.20
2019,06,27,02,59,14.20
2019,06,27,03,00,14.20
2019,06,27,03,01,14.10
2019,06,27,03,02,14.10
2019,06,27,03,03,14.10
2019,06,27,03,04,14.00
2019,06,27,03,05,14.00
2019,06,27,03,06,14.00
2019,06,27,03,07,13.90
2019,06,27,03,08,13.90
2019,06,27,03,09,13.90
2019,06,27,03,10,13.80
2019,06,27,03,11,13.80
2019,06,27,03,12,13.80
2019,06,27,03,13,13.70
2019,06,27,03,14,13.70
2019,06,27,03,15,13.70
2019,06,27,03,16,13.70
2019,06,27,03,17,13.70
2019,06,27,03,18,13.70
2019,06,27,03,19,13.70
2019,06,27,03,20,13.70
2019,06,27,03,21,13.70
2019,06,27,03,22,13.70
2019,06,27,03,23,13.70
2019,06,27,03,24,13.70
2019,06,27,03,25,13.70
2019,06,27,03,26,13.70
2019,06,27,03,27,13.70
2019,06,27,03,28,13.70
2019,06,27,03,29,13.70
2019,06,27,03,30,13.70
2019,06,27,03,31,13.70
2019,06,27,03,32,13.70
2019,06,27,03,33,13.70
2019,06,27,03,34,13.80
2019,06,27,03,35,13.80
2019,06,27,03,36,13.80
2019,06,27,03,37,13.80
2019,06,27,03,38,13.80
2019,06,27,03,39,13.80
2019,06,27,03,40,13.90
2019,06,27,03,41,13.90
2019,06,27,03,42,13.90
2019,06,27,03,43,13.90
2019,06,27,03,44,13.90
2019,06,27,03,45,13.90
2019,06,27,03,46,13.90
2019,06,27,03,47,13.90
2019,06,27,03,48,13.90
2019,06,27,03,49,13.90
2019,06,27,03,50,13.90
2019,06,27,03,51,13.90
2019,06,27,03,52,13.90
2019,06,27,03,53,13.90
2019,06,27,03,54,13.90
2019,06,27,03,55,13.90
2019,06,27,03,56,13.80
2019,06,27,03,57,13.80
2019,06,27,03,58,13.80
2019,06,27,03,59,13.80
2019,06,27,04,00,13.90
2019,06,27,04,01,13.90
2019,06,27,04,02,13.90
2019,06,27,04,03,13.90
2019,06,27,04,04,13.90
2019,06,27,04,05,13.90
2019,06,27,04,06,13.80
2019,06,27,04,07,13.80
2019,06,27,04,08,13.80
2019,06,27,04,09,13.80
2019,06,27,04,10,13.80
2019,06,27,04,11,13.80
2019,06,27,04,12,13.90
2019,06,27,04,13,13.90
2019,06,27,04,14,14.00
2019,06,27,04,15,14.10
2019,06,27,04,16,14.10
2019,06,27,04,17,14.10
2019,06,27,04,18,14.20
2019,06,27,04,19,14.20
2019,06,27,04,20,14.20
2019,06,27,04,21,14.30
2019,06,27,04,22,14.30
2019,06,27,04,23,14.30
2019,06,27,04,24,14.40
2019,06,27,04,25,14.40
2019,06,27,04,26,14.40
2019,06,27,04,27,14.50
2019,06,27,04,28,14.50
2019,06,27,04,29,14.50
2019,06,27,04,30,14.60
2019,06,27,04,31,14.60
2019,06,27,04,32,14.60
2019,06,27,04,33,14.60
2019,06,27,04,34,14.60
2019,06,27,04,35,14.70
2019,06,27,04,36,14.70
2019,06,27,04,37,14.70
2019,06,27,04,38,14.70
2019,06,27,04,39,14.70
2019,06,27,04,40,14.70
2019,06,27,04,41,14.70
2019,06,27,04,42,14.70
2019,06,27,04,43,14.70
2019,06,27,04,44,14.70
2019,06,27,04,45,14.70
2019,06,27,04,46,14.70
2019,06,27,04,47,14.70
2019,06,27,04,48,14.70
2019,06,27,04,49,14.70
2019,06,27,04,50,14.70
2019,06,27,04,51,14.70
2019,06,27,04,52,14.70
2019,06,27,04,53,14.70
2019,06,27,04,54,14.70
2019,06,27,04,55,14.70
2019,06,27,04,56,14.70
2019,06,27,04,57,14.80
2019,06,27,04,58,14.80
2019,06,27,04,59,14.80
2019,06,27,05,00,14.80
2019,06,27,05,01,14.80
2019,06,27,05,02,14.80
2019,06,27,05,03,14.80
2019,06,27,05,04,14.80
2019,06,27,05,05,14.80
2019,06,27,05,06,14.80
2019,06,27,05,07,14.80
2019,06,27,05,08,14.80
2019,06,27,05,09,14.80
2019,06,27,05,10,14.80
2019,06,27,05,11,14.80
2019,06,27,05,12,14.80
2019,06,27,05,13,14.80
2019,06,27,05,14,14.70
2019,06,27,05,15,14.70
2019,06,27,05,16,14.70
2019,06,27,05,17,14.60
2019,06,27,05,18,14.60
2019,06,27,05,19,14.50
2019,06,27,05,20,14.50
2019,06,27,05,21,14.50
2019,06,27,05,22,14.40
2019,06,27,05,23,14.40
2019,06,27,05,24,14.40
2019,06,27,05,25,14.30
2019,06,27,05,26,14.30
2019,06,27,05,27,14.30
2019,06,27,05,28,14.30
2019,06,27,05,29,14.30
2019,06,27,05,30,14.30
2019,06,27,05,31,14.30
2019,06,27,05,32,14.30
2019,06,27,05,33,14.30
2019,06,27,05,34,14.30
2019,06,27,05,35,14.30
2019,06,27,05,36,14.30
2019,06,27,05,37,14.30
2019,06,27,05,38,14.30
2019,06,27,05,39,14.30
2019,06,27,05,40,14.30
2019,06,27,05,41,14.30
2019,06,27,05,42,14.30
2019,06,27,05,43,14.30
2019,06,27,05,44,14.40
2019,06,27,05,45,14.40
2019,06,27,05,46,14.40
2019,06,27,05,47,14.40
2019,06,27,05,48,14.50
2019,06,27,05,49,14.50
2019,06,27,05,50,14.50
2019,06,27,05,51,14.50
2019,06,27,05,52,14.60
2019,06,27,05,53,14.60
2019,06,27,05,54,14.60
2019,06,27,05,55,14.60
2019,06,27,05,56,14.60
2019,06,27,05,57,14.60
2019,06,27,05,58,14.60
2019,06,27,05,59,14.60
2019,06,27,06,00,14.60
2019,06,27,06,01,14.60
2019,06,27,06,02,14.60
2019,06,27,06,03,14.60
2019,06,27,06,04,14.60
2019,06,27,06,05,14.60
2019,06,27,06,06,14.60
2019,06,27,06,07,14.60
2019,06,27,06,08,14.60
2019,06,27,06,09,14.60
2019,06,27,06,10,14.60
2019,06,27,06,11,14.60
2019,06,27,06,12,14.60
2019,06,27,06,13,14.60
2019,06,27,06,14,14.60
2019,06,27,06,15,14.60
2019,06,27,06,16,14.60
2019,06,27,06,17,14.60
2019,06,27,06,18,14.50
2019,06,27,06,19,14.50
2019,06,27,06,20,14.50
2019,06,27,06,21,14.40
2019,06,27,06,22,14.40
2019,06,27,06,23,14.30
2019,06,27,06,24,14.20
2019,06,27,06,25,14.20
2019,06,27,06,26,14.10
2019,06,27,06,27,14.00
2019,06,27,06,28,14.00
2019,06,27,06,29,13.90
2019,06,27,06,30,13.90
2019,06,27,06,31,13.80
2019,06,27,06,32,13.80
2019,06,27,06,33,13.80
2019,06,27,06,34,13.70
2019,06,27,06,35,13.70
2019,06,27,06,36,13.70
2019,06,27,06,37,13.70
2019,06,27,06,38,13.70
2019,06,27,06,39,13.70
2019,06,27,06,40,13.60
2019,06,27,06,41,13.60
2019,06,27,06,42,13.60
2019,06,27,06,43,13.60
2019,06,27,06,44,13.60
2019,06,27,06,45,13.60
2019,06,27,06,46,13.60
2019,06,27,06,47,13.60
2019,06,27,06,48,13.60
2019,06,27,06,49,13.60
2019,06,27,06,50,13.60
2019,06,27,06,51,13.60
2019,06,27,06,52,13.60
2019,06,27,06,53,13.60
2019,06,27,06,54,13.60
2019,06,27,06,55,13.60
2019,06,27,06,56,13.60
2019,06,27,06,57,13.70
2019,06,27,06,58,13.70
2019,06,27,06,59,13.70
2019,06,27,07,00,13.70
2019,06,27,07,01,13.70
2019,06,27,07,02,13.70
2019,06,27,07,03,13.80
2019,06,27,07,04,13.80
2019,06,27,07,05,13.80
2019,06,27,07,06,13.80
2019,06,27,07,07,13.90
2019,06,27,07,08,13.90
2019,06,27,07,09,13.90
2019,06,27,07,10,13.90
2019,06,27,07,11,13.90
2019,06,27,07,12,14.00
2019,06,27,07,13,14.00
2019,06,27,07,14,14.00
2019,06,27,07,15,14.10
2019,06,27,07,16,14.10
2019,06,27,07,17,14.10
2019,06,27,07,18,14.20
2019,06,27,07,19,14.20
2019,06,27,07,20,14.20
2019,06,27,07,21,14.30
2019,06,27,07,22,14.30
2019,06,27,07,23,14.30
2019,06,27,07,24,14.30
2019,06,27,07,25,14.30
2019,06,27,07,26,14.40
2019,06,27,07,27,14.40
2019,06,27,07,28,14.40
2019,06,27,07,29,14.50
2019,06,27,07,30,14.50
2019,06,27,07,31,14.60
2019,06,27,07,32,14.60
2019,06,27,07,33,14.60
2019,06,27,07,34,14.70
2019,06,27,07,35,14.70
2019,06,27,07,36,14.70
2019,06,27,07,37,14.70
2019,06,27,07,38,14.70
2019,06,27,07,39,14.80
2019,06,27,07,40,14.90
2019,06,27,07,41,14.90
2019,06,27,07,42,15.00
2019,06,27,07,43,15.00
2019,06,27,07,44,15.10
2019,06,27,07,45,15.10
2019,06,27,07,46,15.10
2019,06,27,07,47,15.20
2019,06,27,07,48,15.20
2019,06,27,07,49,15.20
2019,06,27,07,50,15.20
2019,06,27,07,51,15.20
2019,06,27,07,52,15.20
2019,06,27,07,53,15.20
2019,06,27,07,54,15.20
2019,06,27,07,55,15.20
2019,06,27,07,56,15.30
2019,06,27,07,57,15.30
2019,06,27,07,58,15.30
2019,06,27,07,59,15.30
2019,06,27,08,00,15.30
2019,06,27,08,01,15.30
2019,06,27,08,02,15.30
2019,06,27,08,03,15.30
2019,06,27,08,04,15.30
2019,06,27,08,05,15.30
2019,06,27,08,06,15.30
2019,06,27,08,07,15.30
2019,06,27,08,08,15.30
2019,06,27,08,09,15.30
2019,06,27,08,10,15.30
2019,06,27,08,11,15.20
2019,06,27,08,12,15.20
2019,06,27,08,13,15.20
2019,06,27,08,14,15.20
2019,06,27,08,15,15.20
2019,06,27,08,16,15.20
2019,06,27,08,17,15.20
2019,06,27,08,18,15.10
2019,06,27,08,19,15.10
2019,06,27,08,20,15.10
2019,06,27,08,21,15.10
2019,06,27,08,22,15.00
2019,06,27,08,23,15.00
2019,06,27,08,24,15.00
2019,06,27,08,25,14.90
2019,06,27,08,26,14.90
2019,06,27,08,27,14.80
2019,06,27,08,28,14.80
2019,06,27,08,29,14.80
2019,06,27,08,30,14.80
2019,06,27,08,31,14.80
2019,06,27,08,32,14.70
2019,06,27,08,33,14.70
2019,06,27,08,34,14.70
2019,06,27,08,35,14.70
2019,06,27,08,36,14.70
2019,06,27,08,37,14.60
2019,06,27,08,38,14.60
2019,06,27,08,39,14.60
2019,06,27,08,40,14.60
2019,06,27,08,41,14.60
2019,06,27,08,42,14.60
2019,06,27,08,43,14.60
2019,06,27,08,44,14.50
2019,06,27,08,45,14.50
2019,06,27,08,46,14.50
2019,06,27,08,47,14.50
2019,06,27,08,48,14.50
2019,06,27,08,49,14.50
2019,06,27,08,50,14.50
2019,06,27,08,51,14.50
2019,06,27,08,52,14.50
2019,06,27,08,53,14.50
2019,06,27,08,54,14.50
2019,06,27,08,55,14.50
2019,06,27,08,56,14.40
2019,06,27,08,57,14.40
2019,06,27,08,58,14.40
2019,06,27,08,59,14.40
2019,06,27,09,00,14.40
2019,06,27,09,01,14.40
2019,06,27,09,02,14.40
2019,06,27,09,03,14.30
2019,06,27,09,04,14.30
2019,06,27,09,05,14.30
2019,06,27,09,06,14.30
2019,06,27,09,07,14.30
2019,06,27,09,08,14.30
2019,06,27,09,09,14.30
2019,06,27,09,10,14.30
2019,06,27,09,11,14.30
2019,06,27,09,12,14.30
2019,06,27,09,13,14.30
2019,06,27,09,14,14.30
2019,06,27,09,15,14.30
2019,06,27,09,16,14.30
2019,06,27,09,17,14.30
2019,06,27,09,18,14.30
2019,06,27,09,19,14.30
2019,06,27,09,20,14.30
2019,06,27,09,21,14.20
2019,06,27,09,22,14.30
2019,06,27,09,23,14.30
2019,06,27,09,24,14.20
2019,06,27,09,25,14.20
2019,06,27,09,26,14.20
2019,06,27,09,27,14.20
2019,06,27,09,28,14.20
2019,06,27,09,29,14.20
2019,06,27,09,30,14.20
2019,06,27,09,31,14.20
2019,06,27,09,32,14.20
2019,06,27,09,33,14.20
2019,06,27,09,34,14.20
2019,06,27,09,35,14.20
2019,06,27,09,36,14.20
2019,06,27,09,37,14.20
2019,06,27,09,38,14.20
2019,06,27,09,39,14.20
2019,06,27,09,40,14.20
2019,06,27,09,41,14.20
2019,06,27,09,42,14.20
2019,06,27,09,43,14.20
2019,06,27,09,44,14.10
2019,06,27,09,45,14.10
2019,06,27,09,46,14.10
2019,06,27,09,47,14.10
2019,06,27,09,48,14.10
2019,06,27,09,49,14.10
2019,06,27,09,50,14.10
2019,06,27,09,51,14.10
2019,06,27,09,52,14.10
2019,06,27,09,53,14.10
2019,06,27,09,54,14.00
2019,06,27,09,55,14.00
2019,06,27,09,56,14.00
2019,06,27,09,57,14.00
2019,06,27,09,58,14.00
2019,06,27,09,59,14.00
2019,06,27,10,00,14.00
2019,06,27,10,01,14.00
2019,06,27,10,02,13.90
2019,06,27,10,03,13.90
2019,06,27,10,04,13.90
2019,06,27,10,05,13.90
2019,06,27,10,06,13.90
2019,06,27,10,07,13.90
2019,06,27,10,08,13.90
2019,06,27,10,09,13.90
2019,06,27,10,10,13.90
2019,06,27,10,11,13.90
2019,06,27,10,12,13.90
2019,06,27,10,13,13.90
2019,06,27,10,14,13.90
2019,06,27,10,15,13.90
2019,06,27,10,16,14.00
2019,06,27,10,17,14.00
2019,06,27,10,18,14.00
2019,06,27,10,19,14.00
2019,06,27,10,20,14.10
2019,06,27,10,21,14.00
2019,06,27,10,22,14.00
2019,06,27,10,23,14.10
2019,06,27,10,24,14.10
2019,06,27,10,25,14.10
2019,06,27,10,26,14.10
2019,06,27,10,27,14.10
2019,06,27,10,28,14.00
2019,06,27,10,29,14.00
2019,06,27,10,30,14.00
2019,06,27,10,31,14.00
2019,06,27,10,32,14.00
2019,06,27,10,33,14.00
2019,06,27,10,34,14.10
2019,06,27,10,35,14.10
2019,06,27,10,36,14.10
2019,06,27,10,37,14.10
2019,06,27,10,38,14.10
2019,06,27,10,39,14.10
2019,06,27,10,40,14.10
2019,06,27,10,41,14.10
2019,06,27,10,42,14.00
2019,06,27,10,43,14.00
2019,06,27,10,44,14.00
2019,06,27,10,45,14.00
2019,06,27,10,46,13.90
2019,06,27,10,47,13.90
2019,06,27,10,48,13.90
2019,06,27,10,49,13.90
2019,06,27,10,50,13.90
2019,06,27,10,51,13.90
2019,06,27,10,52,13.90
2019,06,27,10,53,13.90
2019,06,27,10,54,13.90
2019,06,27,10,55,13.90
2019,06,27,10,56,13.90
2019,06,27,10,57,13.90
2019,06,27,10,58,13.90
2019,06,27,10,59,13.90
2019,06,27,11,00,13.90
2019,06,27,11,01,13.90
2019,06,27,11,02,13.90
2019,06,27,11,03,13.90
2019,06,27,11,04,13.90
2019,06,27,11,05,13.90
2019,06,27,11,06,13.90
2019,06,27,11,07,13.90
2019,06,27,11,08,13.90
2019,06,27,11,09,13.90
2019,06,27,11,10,13.90
2019,06,27,11,11,13.90
2019,06,27,11,12,13.90
2019,06,27,11,13,13.90
2019,06,27,11,14,13.90
2019,06,27,11,15,13.80
2019,06,27,11,16,13.80
2019,06,27,11,17,13.80
2019,06,27,11,18,13.80
2019,06,27,11,19,13.80
2019,06,27,11,20,13.80
2019,06,27,11,21,13.80
2019,06,27,11,22,13.80
2019,06,27,11,23,13.80
2019,06,27,11,24,13.80
2019,06,27,11,25,13.80
2019,06,27,11,26,13.80
2019,06,27,11,27,13.80
2019,06,27,11,28,13.80
2019,06,27,11,29,13.70
2019,06,27,11,30,13.70
2019,06,27,11,31,13.70
2019,06,27,11,32,13.70
2019,06,27,11,33,13.70
2019,06,27,11,34,13.70
2019,06,27,11,35,13.70
2019,06,27,11,36,13.70
2019,06,27,11,37,13.70
2019,06,27,11,38,13.70
2019,06,27,11,39,13.70
2019,06,27,11,40,13.70
2019,06,27,11,41,13.80
2019,06,27,11,42,13.80
2019,06,27,11,43,13.80
2019,06,27,11,44,13.80
2019,06,27,11,45,13.80
2019,06,27,11,46,13.80
2019,06,27,11,47,13.80
2019,06,27,11,48,13.80
2019,06,27,11,49,13.80
2019,06,27,11,50,13.80
2019,06,27,11,51,13.80
2019,06,27,11,52,13.80
2019,06,27,11,53,13.80
2019,06,27,11,54,13.80
2019,06,27,11,55,13.80
2019,06,27,11,56,13.80
2019,06,27,11,57,13.80
2019,06,27,11,58,13.80
2019,06,27,11,59,13.90
2019,06,27,12,00,13.90
2019,06,27,12,01,13.90
2019,06,27,12,02,13.90
2019,06,27,12,03,13.90
2019,06,27,12,04,13.90
2019,06,27,12,05,13.90
2019,06,27,12,06,13.90
2019,06,27,12,07,14.00
2019,06,27,12,08,14.00
2019,06,27,12,09,13.90
2019,06,27,12,10,13.90
2019,06,27,12,11,13.90
2019,06,27,12,12,14.00
2019,06,27,12,13,14.00
2019,06,27,12,14,14.00
2019,06,27,12,15,14.00
2019,06,27,12,16,14.00
2019,06,27,12,17,14.00
2019,06,27,12,18,14.00
2019,06,27,12,19,14.10
2019,06,27,12,20,14.10
2019,06,27,12,21,14.10
2019,06,27,12,22,14.00
2019,06,27,12,23,14.00
2019,06,27,12,24,14.00
2019,06,27,12,25,13.90
2019,06,27,12,26,13.90
2019,06,27,12,27,13.90
2019,06,27,12,28,13.80
2019,06,27,12,29,13.80
2019,06,27,12,30,13.80
2019,06,27,12,31,13.80
2019,06,27,12,32,13.80
2019,06,27,12,33,13.80
2019,06,27,12,34,13.80
2019,06,27,12,35,13.80
2019,06,27,12,36,13.80
2019,06,27,12,37,13.80
2019,06,27,12,38,13.90
2019,06,27,12,39,13.90
2019,06,27,12,40,13.90
2019,06,27,12,41,13.90
2019,06,27,12,42,13.90
2019,06,27,12,43,13.80
2019,06,27,12,44,13.90
2019,06,27,12,45,13.90
2019,06,27,12,46,13.90
2019,06,27,12,47,13.90
2019,06,27,12,48,13.90
2019,06,27,12,49,13.90
2019,06,27,12,50,13.90
2019,06,27,12,51,13.90
2019,06,27,12,52,13.90
2019,06,27,12,53,13.90
2019,06,27,12,54,13.90
2019,06,27,12,55,13.90
2019,06,27,12,56,13.90
2019,06,27,12,57,13.80
2019,06,27,12,58,13.80
2019,06,27,12,59,13.80
2019,06,27,13,00,13.80
2019,06,27,13,01,13.80
2019,06,27,13,02,13.70
2019,06,27,13,03,13.70
2019,06,27,13,04,13.70
2019,06,27,13,05,13.70
2019,06,27,13,06,13.70
2019,06,27,13,07,13.70
2019,06,27,13,08,13.70
2019,06,27,13,09,13.60
2019,06,27,13,10,13.50
2019,06,27,13,11,13.50
2019,06,27,13,12,13.50
2019,06,27,13,13,13.50
2019,06,27,13,14,13.50
2019,06,27,13,15,13.50
2019,06,27,13,16,13.60
2019,06,27,13,17,13.60
2019,06,27,13,18,13.60
2019,06,27,13,19,13.60
2019,06,27,13,20,13.50
2019,06,27,13,21,13.50
2019,06,27,13,22,13.50
2019,06,27,13,23,13.40
2019,06,27,13,24,13.40
2019,06,27,13,25,13.30
2019,06,27,13,26,13.30
2019,06,27,13,27,13.30
2019,06,27,13,28,13.30
2019,06,27,13,29,13.30
2019,06,27,13,30,13.30
2019,06,27,13,31,13.30
2019,06,27,13,32,13.30
2019,06,27,13,33,13.30
2019,06,27,13,34,13.30
2019,06,27,13,35,13.30
2019,06,27,13,36,13.40
2019,06,27,13,37,13.40
2019,06,27,13,38,13.50
2019,06,27,13,39,13.50
2019,06,27,13,40,13.60
2019,06,27,13,41,13.50
2019,06,27,13,42,13.50
2019,06,27,13,43,13.60
2019,06,27,13,44,13.60
2019,06,27,13,45,13.60
2019,06,27,13,46,13.60
2019,06,27,13,47,13.60
2019,06,27,13,48,13.60
2019,06,27,13,49,13.60
2019,06,27,13,50,13.70
2019,06,27,13,51,13.70
2019,06,27,13,52,13.70
2019,06,27,13,53,13.70
2019,06,27,13,54,13.70
2019,06,27,13,55,13.70
2019,06,27,13,56,13.80
2019,06,27,13,57,13.70
2019,06,27,13,58,13.70
2019,06,27,13,59,13.70
2019,06,27,14,00,13.70
2019,06,27,14,01,13.70
2019,06,27,14,02,13.70
2019,06,27,14,03,13.70
2019,06,27,14,04,13.70
2019,06,27,14,05,13.70
2019,06,27,14,06,13.70
2019,06,27,14,07,13.70
2019,06,27,14,08,13.70
2019,06,27,14,09,13.80
2019,06,27,14,10,13.80
2019,06,27,14,11,13.80
2019,06,27,14,12,13.80
2019,06,27,14,13,13.80
2019,06,27,14,14,13.80
2019,06,27,14,15,13.80
2019,06,27,14,16,13.80
2019,06,27,14,17,13.80
2019,06,27,14,18,13.90
2019,06,27,14,19,13.90
2019,06,27,14,20,13.90
2019,06,27,14,21,13.90
2019,06,27,14,22,13.90
2019,06,27,14,23,13.90
2019,06,27,14,24,13.90
2019,06,27,14,25,13.90
2019,06,27,14,26,13.90
2019,06,27,14,27,13.90
2019,06,27,14,28,13.90
2019,06,27,14,29,13.90
2019,06,27,14,30,13.90
2019,06,27,14,31,13.90
2019,06,27,14,32,13.90
2019,06,27,14,33,13.90
2019,06,27,14,34,13.80
2019,06,27,14,35,13.80
2019,06,27,14,36,13.90
2019,06,27,14,37,13.90
2019,06,27,14,38,13.90
2019,06,27,14,39,13.90
2019,06,27,14,40,13.90
2019,06,27,14,41,13.80
2019,06,27,14,42,13.80
2019,06,27,14,43,13.80
2019,06,27,14,44,13.80
2019,06,27,14,45,13.80
2019,06,27,14,46,13.80
2019,06,27,14,47,13.80
2019,06,27,14,48,13.80
2019,06,27,14,49,13.70
2019,06,27,14,50,13.70
2019,06,27,14,51,13.70
2019,06,27,14,52,13.70
2019,06,27,14,53,13.70
2019,06,27,14,54,13.80
2019,06,27,14,55,13.80
2019,06,27,14,56,13.80
2019,06,27,14,57,13.90
2019,06,27,14,58,13.90
2019,06,27,14,59,13.80
2019,06,27,15,00,13.90
2019,06,27,15,01,13.90
2019,06,27,15,02,13.90
2019,06,27,15,03,13.90
2019,06,27,15,04,13.80
2019,06,27,15,05,13.80
2019,06,27,15,06,13.80
2019,06,27,15,07,13.90
2019,06,27,15,08,13.90
2019,06,27,15,09,14.00
2019,06,27,15,10,14.00
2019,06,27,15,11,14.10
2019,06,27,15,12,14.10
2019,06,27,15,13,14.20
2019,06,27,15,14,14.20
2019,06,27,15,15,14.20
2019,06,27,15,16,14.20
2019,06,27,15,17,14.20
2019,06,27,15,18,14.20
2019,06,27,15,19,14.20
2019,06,27,15,20,14.10
2019,06,27,15,21,14.10
2019,06,27,15,22,14.10
2019,06,27,15,23,14.10
2019,06,27,15,24,14.10
2019,06,27,15,25,14.00
2019,06,27,15,26,14.00
2019,06,27,15,27,14.00
2019,06,27,15,28,14.00
2019,06,27,15,29,14.10
2019,06,27,15,30,14.10
2019,06,27,15,31,14.10
2019,06,27,15,32,14.10
2019,06,27,15,33,14.20
2019,06,27,15,34,14.20
2019,06,27,15,35,14.20
2019,06,27,15,36,14.30
2019,06,27,15,37,14.30
2019,06,27,15,38,14.40
2019,06,27,15,39,14.40
2019,06,27,15,40,14.40
2019,06,27,15,41,14.40
2019,06,27,15,42,14.30
2019,06,27,15,43,14.30
2019,06,27,15,44,14.30
2019,06,27,15,45,14.30
2019,06,27,15,46,14.40
2019,06,27,15,47,14.40
2019,06,27,15,48,14.40
2019,06,27,15,49,14.40
2019,06,27,15,50,14.30
2019,06,27,15,51,14.30
2019,06,27,15,52,14.40
2019,06,27,15,53,14.40
2019,06,27,15,54,14.40
2019,06,27,15,55,14.40
2019,06,27,15,56,14.40
2019,06,27,15,57,14.50
2019,06,27,15,58,14.50
2019,06,27,15,59,14.60
2019,06,27,16,00,14.60
2019,06,27,16,01,14.70
2019,06,27,16,02,14.70
2019,06,27,16,03,14.70
2019,06,27,16,04,14.70
2019,06,27,16,05,14.70
2019,06,27,16,06,14.70
2019,06,27,16,07,14.70
2019,06,27,16,08,14.70
2019,06,27,16,09,14.70
2019,06,27,16,10,14.80
2019,06,27,16,11,14.80
2019,06,27,16,12,14.80
2019,06,27,16,13,14.70
2019,06,27,16,14,14.70
2019,06,27,16,15,14.70
2019,06,27,16,16,14.70
2019,06,27,16,17,14.80
2019,06,27,16,18,14.80
2019,06,27,16,19,14.80
2019,06,27,16,20,14.80
2019,06,27,16,21,14.80
2019,06,27,16,22,14.80
2019,06,27,16,23,14.80
2019,06,27,16,24,14.80
2019,06,27,16,25,14.80
2019,06,27,16,26,14.80
2019,06,27,16,27,14.80
2019,06,27,16,28,14.80
2019,06,27,16,29,14.80
2019,06,27,16,30,14.80
2019,06,27,16,31,14.80
2019,06,27,16,32,14.80
2019,06,27,16,33,14.80
2019,06,27,16,34,14.80
2019,06,27,16,35,14.80
2019,06,27,16,36,14.80
2019,06,27,16,37,14.80
2019,06,27,16,38,14.80
2019,06,27,16,39,14.80
2019,06,27,16,40,14.80
2019,06,27,16,41,14.80
2019,06,27,16,42,14.80
2019,06,27,16,43,14.80
2019,06,27,16,44,14.80
2019,06,27,16,45,14.80
2019,06,27,16,46,14.80
2019,06,27,16,47,14.80
2019,06,27,16,48,14.80
2019,06,27,16,49,14.80
2019,06,27,16,50,14.80
2019,06,27,16,51,14.80
2019,06,27,16,52,14.80
2019,06,27,16,53,14.90
2019,06,27,16,54,14.90
2019,06,27,16,55,14.90
2019,06,27,16,56,14.90
2019,06,27,16,57,14.90
2019,06,27,16,58,15.00
2019,06,27,16,59,15.00
2019,06,27,17,00,15.10
2019,06,27,17,01,15.10
2019,06,27,17,02,15.10
2019,06,27,17,03,15.10
2019,06,27,17,04,15.20
2019,06,27,17,05,15.20
2019,06,27,17,06,15.20
2019,06,27,17,07,15.20
2019,06,27,17,08,15.20
2019,06,27,17,09,15.10
2019,06,27,17,10,15.20
2019,06,27,17,11,15.20
2019,06,27,17,12,15.20
2019,06,27,17,13,15.20
2019,06,27,17,14,15.20
2019,06,27,17,15,15.20
2019,06,27,17,16,15.30
2019,06,27,17,17,15.30
2019,06,27,17,18,15.30
2019,06,27,17,19,15.30